Hourly Data Report for February 26, 2019

TORONTO CITY
ONTARIO
Current Station Operator: ECCC - MSC

43°40'00.000" N
79°24'00.000" W
112.50 m
6158355
71508
XTO

Download Data

Hourly Data (February 2019)
Hourly Data Report for February 26, 2019
TIME
LST
Temp Definition
°C
Dew Point Definition
°C
Rel Hum Definition
%
Precip. Amount Definition
mm

Wind Dir Definition
10's deg

Wind Spd Definition
km/h
Visibility Definition
km
Stn Press Definition
kPa
Hmdx Definition


Wind Chill Definition


Weather Definition


00:00 -6.5 -12.4 63 0.0       101.29     LegendNANA
01:00 -6.7 -13.0 61 0.0       101.36     LegendNANA
02:00 -7.2 -13.2 62 0.0       101.42     LegendNANA
03:00 -7.7 -14.9 56 0.0       101.50     LegendNANA
04:00 -8.2 -15.9 54 0.0       101.54     LegendNANA
05:00 -8.6 -15.5 57 0.0       101.59     LegendNANA
06:00 -8.7 -15.5 58 0.0       101.64     LegendNANA
07:00 -8.9 -15.2 60 0.0       101.65     LegendNANA
08:00 -8.9 -15.7 58 0.0       101.70     LegendNANA
09:00 -8.0 -15.4 55 0.0       101.75     LegendNANA
10:00 -7.2 -15.6 51 0.0       101.75     LegendNANA
11:00 -6.1 -15.4 48 0.2       101.74     LegendNANA
12:00 -5.8 -16.6 42 0.0       101.74     LegendNANA
13:00 -5.1 -16.1 42 0.0       101.70     LegendNANA
14:00 -6.1 -13.6 55 0.0       101.74     LegendNANA
15:00 -6.0 -15.5 47 0.0       101.76     LegendNANA
16:00 -7.1 -15.9 50 0.0       101.87     LegendNANA
17:00 -7.8 -16.6 49 0.0       101.81     LegendNANA
18:00 -8.5 -16.7 51 0.0       101.91     LegendNANA
19:00 -8.6 -15.8 56 0.0       101.95     LegendNANA
20:00 -8.8 -15.5 58 0.0       101.94     LegendNANA
21:00 -9.2 -15.4 61 0.0       101.90     LegendNANA
22:00 -8.9 -15.4 59 0.0       101.92     LegendNANA
23:00 -9.1 -16.6 55 0.0       101.89     LegendNANA

Notes on Data Quality.

Legend

  • E = Estimated
  • M = Missing
  • NA = Not Available*
  • [empty] = Indicates an unobserved value
Date modified: